Volver al catálogo

SL-14 DEB

ActivoPO
NORAD 45652·DEBRIS·🇷🇺 Russia

Lanzado Aug 15, 1991 desde Plesetsk Cosmodrome

Loading…

Próximos Pases (próximas 24 horas)

TLE

ActualizadoSource: Space-Track

Época: Sep 12, 2026, 04:12 UTC

1 45652U 91056CW  26255.17558568  .00000349  00000-0  77832-3 0  9994
2 45652  82.5504  58.0292 0030818 164.2459 195.9634 13.24575786310363

Sigue SL-14 DEB en tiempo real con AllMySat

Download on the App Store